EW4271 Weather Reports


time (UTC)temp
F
wind
direction
speed
knots
gust
knots
rain 1hr
in
rain 24hr
in
rain mn
in
humidity
%
barometer
mb
20260502194137 57 150 2.6 4.3 0.00 0.34 0.01 29 1025.6
20260502193632 57 63 2.6 4.3 0.00 0.34 0.01 31 1025.6
20260502193128 57 31 1.7 3.5 0.00 0.34 0.01 29 1025.7
20260502192624 57 90 1.7 6.1 0.00 0.34 0.01 27 1025.7
20260502192124 57 299 1.7 6.1 0.00 0.34 0.01 28 1025.8
20260502191638 58 311 1.7 5.2 0.00 0.34 0.01 27 1025.8
20260502191155 57 120 0.9 6.1 0.00 0.34 0.01 30 1025.8
20260502190630 57 145 2.6 7.0 0.00 0.34 0.01 28 1025.9
20260502190126 56 142 2.6 4.3 0.00 0.34 0.01 30 1026.0
20260502185701 56 44 1.7 4.3 0.00 0.34 0.01 29 1026.0
20260502185135 56 281 1.7 4.3 0.00 0.34 0.01 29 1026.2
20260502184630 56 213 1.7 3.5 0.00 0.34 0.01 27 1026.2
20260502184126 56 244 1.7 4.3 0.00 0.34 0.01 30 1026.2
20260502183625 55 58 1.7 4.3 0.00 0.34 0.01 29 1026.4
20260502183139 55 254 0.9 6.1 0.00 0.34 0.01 32 1026.4
20260502182653 55 227 2.6 7.8 0.00 0.34 0.01 32 1026.6
20260502182126 54 281 1.7 7.8 0.00 0.34 0.01 36 1026.6
20260502181700 53 115 2.6 7.0 0.00 0.34 0.01 39 1026.5
20260502181155 52 5 1.7 5.2 0.00 0.34 0.01 35 1026.7
20260502180629 53 26 2.6 5.2 0.00 0.34 0.01 35 1026.8
20260502180123 53 78 1.7 5.2 0.00 0.34 0.01 33 1026.8
20260502170126 51 247 1.7 5.2 0.01 0.34 0.01 48 1026.9
20260502164145 51 116 1.7 3.5 0.00 0.34 0.00 53 1026.9
20260502163640 51 72 1.7 3.5 0.00 0.34 0.00 55 1026.9
20260502163154 51 120 0.9 3.5 0.00 0.34 0.00 57 1026.8
20260502162628 50 156 1.7 6.1 0.00 0.34 0.00 61 1026.8
20260502162125 50 113 2.6 7.0 0.00 0.34 0.00 58 1026.7
20260502161638 49 156 3.5 7.0 0.00 0.34 0.00 59 1026.7
20260502161132 48 84 2.6 6.1 0.00 0.34 0.00 58 1026.8
20260502160626 48 28 1.7 4.3 0.00 0.34 0.00 61 1026.7
20260502160120 48 130 1.7 6.1 0.00 0.34 0.00 70 1026.7
20260502152133 45 40 1.7 3.5 0.00 0.34 0.00 83 1026.8
20260502151624 44 151 1.7 4.3 0.00 0.34 0.00 82 1026.9
20260502151159 44 138 0.9 3.5 0.00 0.34 0.00 84 1026.9
20260502150626 43 91 0.0 1.7 0.00 0.34 0.00 86 1027.0
20260502150139 42 34 0.0 3.5 0.00 0.34 0.00 85 1026.9
20260502130638 32 355 0.0 0.0 0.00 0.34 0.00 95 1026.3
20260502130134 32 355 0.0 0.0 0.00 0.34 0.00 95 1026.4
20260502123631 32 355 0.0 0.0 0.00 0.34 0.00 94 1026.1
20260502123146 32 355 0.0 0.0 0.00 0.34 0.00 94 1026.0
20260502122620 32 355 0.0 0.0 0.00 0.34 0.00 94 1026.0
20260502122136 32 355 0.0 0.0 0.00 0.34 0.00 94 1026.1
20260502121651 32 355 0.0 0.0 0.00 0.34 0.00 94 1026.0
20260502121124 31 355 0.0 0.0 0.00 0.34 0.00 94 1026.1
20260502120640 31 355 0.0 0.0 0.00 0.34 0.00 94 1026.1
20260502120139 31 355 0.0 0.0 0.00 0.34 0.00 94 1026.0
20260502115634 32 355 0.0 0.0 0.00 0.34 0.00 94 1026.0
20260502115129 32 355 0.0 0.0 0.00 0.34 0.00 94 1026.0
20260502114623 32 355 0.0 0.0 0.00 0.34 0.00 94 1026.0
20260502114140 32 355 0.0 0.0 0.00 0.34 0.00 94 1025.9
20260502113634 32 355 0.0 0.0 0.00 0.34 0.00 94 1025.9
20260502113130 32 355 0.0 0.0 0.00 0.34 0.00 94 1026.0
20260502112645 32 355 0.0 0.0 0.00 0.34 0.00 94 1025.9
20260502112144 32 355 0.0 0.0 0.00 0.34 0.00 94 1026.0
20260502111638 32 355 0.0 0.0 0.00 0.34 0.00 94 1025.9
20260502111131 32 355 0.0 0.0 0.00 0.34 0.00 94 1026.0
20260502110627 33 355 0.0 0.0 0.00 0.34 0.00 94 1026.0
20260502110123 33 355 0.0 0.0 0.00 0.34 0.00 94 1025.9
20260502105657 33 355 0.0 0.0 0.00 0.34 0.00 94 1025.9
20260502105153 33 355 0.0 0.0 0.00 0.34 0.00 93 1026.0
20260502104628 33 355 0.0 0.0 0.00 0.34 0.00 94 1026.0
20260502104144 33 355 0.0 0.0 0.00 0.34 0.00 94 1026.0
20260502103658 33 355 0.0 0.0 0.00 0.34 0.00 94 1026.0
20260502103132 33 355 0.0 0.0 0.00 0.34 0.00 94 1025.9
20260502102647 33 355 0.0 0.0 0.00 0.34 0.00 94 1025.8
20260502102126 33 355 0.0 0.0 0.00 0.34 0.00 94 1025.8
20260502101621 33 355 0.0 0.0 0.00 0.34 0.00 93 1025.7
20260502101137 33 355 0.0 0.0 0.00 0.34 0.00 93 1025.7
20260502100633 34 355 0.0 0.0 0.00 0.34 0.00 93 1025.6
20260502100127 34 355 0.0 0.0 0.00 0.34 0.00 93 1025.5
20260502091124 35 355 0.0 0.0 0.00 0.34 0.00 94 1025.5
20260502090640 36 355 0.0 0.0 0.00 0.34 0.00 94 1025.5
20260502090153 35 355 0.0 0.0 0.00 0.34 0.00 94 1025.5
20260502071127 36 355 0.0 0.0 0.00 0.34 0.00 94 1025.9
20260502070640 36 355 0.0 0.0 0.00 0.34 0.00 94 1025.9
20260502070136 36 355 0.0 0.0 0.00 0.34 0.00 94 1025.9
20260502065631 36 355 0.0 0.0 0.00 0.35 0.00 94 1025.9
20260502065126 36 355 0.0 0.0 0.00 0.35 0.00 94 1025.9
20260502064625 36 355 0.0 0.0 0.00 0.35 0.00 94 1025.8
20260502064141 36 355 0.0 0.0 0.00 0.35 0.00 94 1025.8
20260502063654 36 355 0.0 0.0 0.00 0.35 0.00 94 1025.7
20260502063129 35 355 0.0 0.9 0.00 0.35 0.00 94 1025.7
20260502062643 35 355 0.0 0.9 0.00 0.35 0.00 93 1025.6
20260502062138 35 355 0.0 0.0 0.00 0.35 0.00 93 1025.6
20260502061633 36 355 0.0 0.0 0.00 0.35 0.00 93 1025.6
20260502061128 36 355 0.0 0.0 0.00 0.35 0.00 93 1025.6
20260502060625 36 355 0.0 0.0 0.00 0.35 0.00 93 1025.5
20260502060123 36 316 0.0 0.0 0.00 0.35 0.35 93 1025.3
20260502055637 36 316 0.0 0.0 0.00 0.35 0.35 93 1025.3
20260502055132 36 300 0.0 0.0 0.00 0.35 0.35 93 1025.2
20260502054627 36 300 0.0 0.0 0.00 0.35 0.35 93 1025.2
20260502054122 36 300 0.0 0.0 0.00 0.35 0.35 93 1025.1
20260502053659 36 300 0.0 0.0 0.00 0.35 0.35 93 1025.0
20260502053133 36 300 0.0 0.0 0.00 0.35 0.35 93 1025.0
20260502052628 36 300 0.0 0.0 0.00 0.35 0.35 93 1024.9
20260502052128 36 300 0.0 0.9 0.00 0.35 0.35 93 1025.0
20260502051640 36 300 0.0 0.0 0.00 0.35 0.35 93 1025.0
20260502051136 37 300 0.0 0.0 0.00 0.35 0.35 93 1024.9
20260502050651 37 300 0.0 0.0 0.00 0.35 0.35 93 1024.8
20260502050124 37 300 0.0 0.0 0.00 0.35 0.35 93 1025.0
20260502045620 37 300 0.0 0.0 0.00 0.35 0.35 92 1024.9
20260502045135 37 300 0.0 0.0 0.00 0.35 0.35 93 1024.8
20260502044632 37 300 0.0 0.0 0.00 0.35 0.35 92 1025.0
20260502044132 37 300 0.0 0.0 0.00 0.35 0.35 92 1024.8
20260502043647 38 300 0.0 0.0 0.00 0.35 0.35 92 1024.9
20260502043140 38 300 0.0 0.0 0.00 0.35 0.35 92 1024.9
20260502042635 38 300 0.0 0.0 0.00 0.35 0.35 92 1024.8
20260502042131 38 300 0.0 0.0 0.00 0.35 0.35 92 1024.8
20260502041627 38 300 0.0 0.0 0.00 0.35 0.35 93 1024.8
20260502041122 38 300 0.0 0.0 0.00 0.35 0.35 93 1024.8
20260502040636 38 300 0.0 0.0 0.00 0.35 0.35 93 1024.7
20260502040133 38 300 0.0 0.0 0.00 0.35 0.35 92 1024.8
20260502035632 38 300 0.0 0.0 0.00 0.35 0.35 93 1024.8
20260502035148 38 300 0.0 0.0 0.00 0.35 0.35 93 1024.8
20260502034623 38 300 0.0 0.0 0.00 0.35 0.35 93 1024.8
20260502034138 38 300 0.0 0.0 0.00 0.35 0.35 93 1024.8
20260502033633 38 300 0.0 0.0 0.00 0.35 0.35 92 1024.7
20260502033127 38 300 0.0 0.0 0.00 0.35 0.35 92 1024.6
20260502032622 38 300 0.0 0.0 0.00 0.35 0.35 92 1024.6
20260502032121 38 300 0.0 0.0 0.00 0.35 0.35 92 1024.4
20260502031634 38 300 0.0 0.0 0.00 0.35 0.35 93 1024.3
20260502031148 38 300 0.0 1.7 0.00 0.35 0.35 93 1024.4
20260502030700 38 300 0.0 1.7 0.00 0.35 0.35 93 1024.3
20260502030132 38 311 0.0 0.0 0.00 0.35 0.35 93 1024.3
20260502025625 38 311 0.0 0.0 0.00 0.35 0.35 93 1024.1
20260502025159 38 311 0.0 0.0 0.00 0.35 0.35 93 1024.2
20260502024632 38 311 0.0 0.0 0.00 0.35 0.35 93 1024.1
20260502024124 38 311 0.0 1.7 0.00 0.35 0.35 93 1023.9
20260502023638 38 311 0.0 1.7 0.00 0.35 0.35 93 1023.8
20260502023136 38 304 0.0 0.0 0.00 0.35 0.35 93 1023.7
20260502022629 38 304 0.0 0.0 0.01 0.35 0.35 93 1023.4
20260502022123 38 304 0.0 0.0 0.01 0.35 0.35 93 1023.3
20260502021636 38 304 0.0 0.0 0.01 0.35 0.35 93 1023.4
20260502021150 37 304 0.0 0.0 0.02 0.35 0.35 92 1023.3
20260502020624 37 304 0.0 2.6 0.03 0.35 0.35 92 1023.2
20260502020137 37 311 0.0 0.0 0.04 0.35 0.35 92 1023.2
20260502015652 37 311 0.0 0.0 0.05 0.35 0.35 92 1023.2
20260502015125 37 311 0.0 0.0 0.06 0.35 0.35 92 1023.1
20260502014623 37 311 0.0 0.9 0.08 0.35 0.35 92 1023.2
20260502014137 37 311 0.0 0.9 0.09 0.35 0.35 92 1023.1
20260502013650 37 311 0.0 0.9 0.10 0.35 0.35 91 1023.1
20260502013123 37 311 0.0 1.7 0.10 0.35 0.35 91 1023.0
20260502012656 38 311 0.9 1.7 0.09 0.34 0.34 91 1023.0
20260502012129 38 311 0.0 0.0 0.09 0.34 0.34 90 1022.9
20260502011623 38 311 0.0 0.9 0.09 0.34 0.34 90 1022.9
20260502011136 39 311 0.0 2.6 0.08 0.33 0.33 90 1022.9
20260502010631 39 311 0.0 2.6 0.07 0.32 0.32 90 1022.9
20260502010127 39 292 0.0 1.7 0.06 0.31 0.31 90 1022.7
20260502005621 40 298 0.0 1.7 0.05 0.30 0.30 90 1022.5
20260502005135 40 316 0.0 0.9 0.04 0.29 0.29 90 1022.6
20260502004627 40 316 0.0 2.6 0.02 0.27 0.27 90 1022.7
20260502004120 40 316 0.0 2.6 0.01 0.26 0.26 89 1022.7
20260502003634 40 301 0.0 2.6 0.00 0.25 0.25 89 1022.7
20260502003128 40 301 0.0 2.6 0.00 0.25 0.25 88 1022.4
20260502002622 41 304 0.0 0.9 0.00 0.25 0.25 89 1022.3
20260502002136 41 333 0.0 0.0 0.00 0.25 0.25 88 1022.3
20260502001634 41 341 0.0 0.0 0.00 0.25 0.25 88 1022.2
20260502001127 41 341 0.0 0.0 0.00 0.25 0.25 88 1022.0
20260502000621 41 341 0.0 0.9 0.00 0.25 0.25 88 1022.0
20260502000154 41 345 0.0 1.7 0.00 0.25 0.25 88 1021.8
20260501235627 41 193 0.0 2.6 0.00 0.25 0.25 88 1021.6
20260501235122 42 271 0.0 1.7 0.00 0.25 0.25 89 1021.4
20260501234633 42 215 0.0 1.7 0.00 0.25 0.25 88 1021.4
20260501234127 42 344 0.0 0.9 0.00 0.25 0.25 89 1021.5
20260501233625 42 264 0.0 0.9 0.01 0.25 0.25 88 1021.5
20260501233139 42 262 0.0 3.5 0.01 0.25 0.25 87 1021.5
20260501232631 42 237 0.9 3.5 0.02 0.25 0.25 87 1021.4
20260501232126 43 155 1.7 4.3 0.02 0.25 0.25 89 1021.3
20260501231621 43 191 0.9 4.3 0.03 0.25 0.25 89 1021.3
20260501231153 43 161 0.9 4.3 0.03 0.25 0.25 90 1021.3
20260501230627 43 67 0.9 6.1 0.03 0.25 0.25 89 1021.3
20260501230122 43 177 0.0 7.8 0.03 0.25 0.25 90 1021.3
20260501225638 43 142 2.6 7.8 0.03 0.25 0.25 90 1021.3
20260501225133 42 140 0.0 5.2 0.03 0.25 0.25 91 1021.1
20260501224633 42 178 1.7 4.3 0.03 0.25 0.25 91 1021.1
20260501224149 41 105 0.0 2.6 0.03 0.25 0.25 90 1021.2
20260501223623 41 159 0.0 1.7 0.02 0.24 0.24 89 1021.3
20260501223139 41 300 0.0 3.5 0.02 0.24 0.24 89 1021.5
20260501222634 42 305 0.0 3.5 0.01 0.23 0.23 89 1021.4
20260501222130 42 205 0.0 0.9 0.01 0.23 0.23 90 1021.3
20260501221626 42 269 0.0 0.0 0.00 0.22 0.22 90 1021.3
20260501221120 42 169 0.0 0.0 0.01 0.22 0.22 90 1021.1
20260501220620 42 169 0.0 1.7 0.01 0.22 0.22 89 1021.1
20260501220137 41 169 0.0 1.7 0.01 0.22 0.22 90 1021.1
20260501215631 41 266 0.0 3.5 0.03 0.22 0.22 90 1021.0
20260501215126 41 34 0.9 4.3 0.04 0.22 0.22 89 1021.0
20260501214701 40 50 1.7 5.2 0.07 0.22 0.22 88 1021.0
20260501214135 40 28 2.6 5.2 0.08 0.22 0.22 90 1021.1
20260501213631 40 53 0.9 7.0 0.09 0.22 0.22 91 1021.1
20260501213126 40 47 1.7 7.0 0.10 0.22 0.22 90 1021.3
20260501212623 39 34 1.7 6.1 0.11 0.22 0.22 91 1021.3
20260501212122 39 42 2.6 6.1 0.12 0.22 0.22 91 1021.3
20260501211638 38 73 1.7 4.3 0.13 0.22 0.22 91 1021.4
20260501211134 38 20 0.9 4.3 0.12 0.21 0.21 91 1021.5
20260501210630 38 54 1.7 4.3 0.14 0.21 0.21 91 1021.5
20260501210126 38 50 1.7 3.5 0.14 0.20 0.20 91 1021.6
20260501205622 38 46 0.0 2.6 0.14 0.19 0.19 90 1021.7
20260501205136 38 46 0.0 2.6 0.12 0.17 0.17 90 1021.7
20260501204637 38 45 0.0 1.7 0.11 0.15 0.15 90 1021.7
20260501204153 38 13 0.0 2.6 0.11 0.14 0.14 90 1021.8
20260501203648 38 236 0.9 2.6 0.10 0.13 0.13 90 1021.8
20260501203122 38 59 0.0 3.5 0.09 0.11 0.11 90 1021.9
20260501202638 37 52 0.9 4.3 0.09 0.11 0.11 90 1021.9
20260501202135 37 34 2.6 6.1 0.08 0.10 0.10 89 1021.8
20260501201631 37 54 1.7 6.1 0.07 0.09 0.09 89 1021.8
20260501201126 37 26 2.6 5.2 0.07 0.09 0.09 89 1021.8
20260501200626 37 5 0.9 2.6 0.05 0.07 0.07 89 1021.8
20260501200123 37 48 0.0 2.6 0.04 0.06 0.06 89 1021.8
20260501195638 37 42 1.7 4.3 0.03 0.05 0.05 88 1021.8
20260501195154 37 65 1.7 3.5 0.02 0.04 0.04 87 1021.7
20260501194628 38 42 1.7 4.3 0.02 0.04 0.04 86 1021.7